Weather History for Tucson, AZ

Change the Weather History Date:

Saturday, August 16, 2014

  Actual Average Record
Temperature  
Mean Temperature 88 °F 85 °F  
Max Temperature 100 °F 97 °F 108 °F (1992)
Min Temperature 75 °F 73 °F 60 °F (1938)
Degree Days  
Heating Degree Days 0 0  
Month to date heating degree days 0 0  
Since 1 June heating degree days 0 0  
Since 1 July heating degree days 0 0  
Cooling Degree Days 23 20  
Month to date cooling degree days 343 326  
Year to date cooling degree days 2401 2105  
Since 1 June cooling degree days 1798 1603  
Growing Degree Days 37 (Base 50)    
Moisture  
Dew Point 61 °F    
Average Humidity 48    
Maximum Humidity 74    
Minimum Humidity 22    
Precipitation  
Precipitation 0.24 in 0.07 in 0.91 in (1944)
Month to date precipitation 0.96 1.31  
Year to date precipitation 3.00 6.83  
Sea Level Pressure  
Sea Level Pressure 29.91 in    
Wind  
Wind Speed 7 mph (East)    
Max Wind Speed 30 mph    
Max Gust Speed 36 mph    
Visibility 10 miles    
Events Rain , Thunderstorm    
T = Trace of Precipitation, MM = Missing Value Source: NWS Daily Summary

Daily Weather History Graph

Daily Weather History Graph

Search for Another Location

Airport:

Trip Planner

Search our weather history database for the weather conditions in past years. The results will help you decide how hot, cold, wet, or windy it might be!

Date:

Astronomy

Aug. 16, 2014 Rise Set
Actual Time 5:48 AM MST 7:06 PM MST
Civil Twilight 5:23 AM MST 7:32 PM MST
Nautical Twilight 4:52 AM MST 8:03 PM MST
Astronomical Twilight 4:20 AM MST 8:34 PM MST
Moon 11:19 PM MST (8/16) 12:12 PM MST (8/16)
Length of Visible Light 14h 09m
Length of Day
13h 17m
Waning Gibbous, 58% of the Moon is Illuminated
Aug 16
Waning Gibbous
Aug 17
Last Quarter
Aug 25
New
Sep 2
First Quarter
Sep 8
Full

Hourly Weather History & Observations

Time (MST) Temp. Heat Index Dew Point Humidity Pressure Visibility Wind Dir Wind Speed Gust Speed Precip Events Conditions
12:53 AM 81.0 °F 82.5 °F 64.0 °F 56% 29.90 in 10.0 mi SSE 9.2 mph - N/A   Clear
1:53 AM 80.1 °F 81.9 °F 64.9 °F 60% 29.89 in 10.0 mi SE 8.1 mph - N/A   Clear
2:53 AM 78.1 °F - 64.9 °F 64% 29.90 in 10.0 mi SE 5.8 mph - N/A   Clear
3:53 AM 78.1 °F - 64.9 °F 64% 29.90 in 10.0 mi South 5.8 mph - N/A   Clear
4:53 AM 77.0 °F - 64.9 °F 66% 29.92 in 10.0 mi SSE 3.5 mph - N/A   Clear
5:53 AM 75.0 °F - 66.0 °F 73% 29.94 in 10.0 mi Calm Calm - N/A   Clear
6:53 AM 78.1 °F - 66.0 °F 66% 29.95 in 10.0 mi Calm Calm - N/A   Clear
7:53 AM 82.0 °F 83.8 °F 64.9 °F 56% 29.97 in 10.0 mi South 4.6 mph - N/A   Clear
8:53 AM 84.9 °F 85.9 °F 63.0 °F 48% 29.96 in 10.0 mi Calm Calm - N/A   Clear
9:53 AM 89.1 °F 90.0 °F 63.0 °F 42% 29.96 in 10.0 mi NE 4.6 mph - N/A   Clear
10:53 AM 91.0 °F 91.9 °F 63.0 °F 39% 29.94 in 10.0 mi Variable 4.6 mph - N/A   Clear
11:53 AM 93.0 °F 93.8 °F 62.1 °F 36% 29.92 in 10.0 mi Calm Calm - N/A   Clear
12:53 PM 95.0 °F 94.8 °F 60.1 °F 31% 29.90 in 10.0 mi Calm Calm - N/A   Clear
1:53 PM 98.1 °F 96.4 °F 55.9 °F 24% 29.87 in 10.0 mi NNW 12.7 mph - N/A   Clear
2:53 PM 98.1 °F 96.4 °F 55.9 °F 24% 29.84 in 10.0 mi North 10.4 mph 18.4 mph N/A   Clear
3:53 PM 99.0 °F 97.3 °F 55.0 °F 23% 29.81 in 10.0 mi NW 8.1 mph - N/A   Clear
4:53 PM 99.0 °F 96.5 °F 53.1 °F 21% 29.80 in 10.0 mi North 10.4 mph - N/A   Clear
5:53 PM 98.1 °F 96.1 °F 54.0 °F 23% 29.81 in 10.0 mi North 11.5 mph - N/A   Clear
6:53 PM 96.1 °F 94.5 °F 55.9 °F 26% 29.82 in 10.0 mi NNW 11.5 mph - N/A   Clear
7:21 PM 95.0 °F 93.7 °F 57.0 °F 28% 29.99 in 10.0 mi North 8.1 mph - N/A Thunderstorm Scattered Clouds
7:30 PM 91.0 °F 89.7 °F 57.0 °F 32% 30.00 in 9.0 mi ENE 17.3 mph 29.9 mph N/A Thunderstorm Thunderstorm
7:53 PM 82.9 °F 84.6 °F 64.9 °F 54% 29.87 in 10.0 mi NE 9.2 mph 18.4 mph 0.24 in Rain , Thunderstorm Light Thunderstorms and Rain
8:04 PM 84.9 °F 86.1 °F 64.0 °F 49% 30.01 in 10.0 mi East 5.8 mph - 0.00 in   Overcast
8:53 PM 86.0 °F 87.6 °F 64.9 °F 49% 29.83 in 10.0 mi South 5.8 mph - 0.00 in   Clear
9:53 PM 84.0 °F 85.4 °F 64.0 °F 51% 29.88 in 10.0 mi East 6.9 mph - N/A   Clear
10:44 PM 84.9 °F 86.1 °F 64.0 °F 49% 30.04 in 10.0 mi South 13.8 mph - N/A   Scattered Clouds
10:53 PM 84.0 °F 85.4 °F 64.0 °F 51% 29.88 in 10.0 mi South 12.7 mph - N/A   Scattered Clouds
11:53 PM 84.2 °F 83.5 °F 57.2 °F 40% 30.06 in 10.0 mi East 11.5 mph - N/A Thunderstorm Scattered Clouds